Theta_e
327 321 324 323 308 309 301 304 308 307 310 314 317 313 312 315 310 306 332 337 337 339 342 346 347 348 348 347 346 344 341 341 338 340 340 338 338 338 338 342 343 342 342 338 338 338 336 336 335
322 320 323 318 307 301 300 304 305 309 314 316 316 316 315 313 324 326 330 337 338 338 341 344 344 348 348 347 346 344 343 343 339 338 339 339 338 338 337 341 343 340 340 338 337 338 335 336 335
321 320 315 311 307 300 301 306 307 313 316 316 316 320 318 316 326 328 334 338 338 338 340 344 344 348 348 347 346 344 344 344 342 341 340 338 338 337 337 339 341 339 339 338 337 336 336 335 334
322 322 315 307 301 305 304 308 310 315 315 315 318 314 321 328 328 331 336 337 337 337 340 342 345 347 347 346 345 344 344 343 344 341 339 336 336 335 335 339 339 339 339 338 336 336 335 335 334
322 318 308 304 302 305 307 310 313 313 312 314 317 312 316 327 332 334 335 336 336 335 339 344 344 346 346 346 345 344 343 344 344 343 339 335 334 335 335 337 338 338 339 338 335 335 335 334 333
319 315 306 303 301 305 308 313 314 313 313 314 315 314 316 327 330 334 336 336 336 334 338 343 338 340 343 344 344 344 342 344 343 342 339 335 335 335 334 336 337 336 336 336 336 334 333 333 332
317 315 307 304 303 304 305 310 312 312 312 313 319 312 319 326 331 335 335 336 335 334 336 341 344 341 336 338 339 339 340 338 339 340 338 336 336 335 335 335 337 336 334 336 336 334 333 332 331
316 315 306 307 306 305 307 307 310 312 312 319 322 312 312 325 332 335 334 333 332 334 333 338 342 343 343 341 332 334 336 334 336 335 334 331 331 332 331 331 334 335 334 333 334 334 333 331 329
315 310 306 307 306 308 309 309 311 311 312 316 321 320 323 329 332 331 329 329 329 332 332 335 339 341 341 340 334 330 330 330 331 330 328 327 332 332 330 328 332 334 334 332 331 332 333 329 327
315 309 309 313 312 310 310 311 313 311 311 312 314 322 325 327 329 328 327 326 326 328 331 332 336 339 339 337 337 336 335 334 334 335 334 333 332 332 330 326 327 329 329 331 328 326 325 325 327
312 309 313 311 311 311 312 310 312 312 311 314 312 313 322 325 327 327 327 326 325 326 330 332 331 336 338 337 336 335 334 334 335 335 335 334 331 332 331 330 328 329 322 328 326 324 326 326 326
307 311 312 312 312 312 311 314 311 312 316 318 317 315 314 321 325 326 327 326 325 325 329 332 331 332 335 336 335 334 333 333 333 333 334 333 331 331 330 329 328 327 326 326 326 326 326 325 325
307 309 311 313 312 312 311 310 311 311 315 319 315 309 312 316 322 327 329 329 328 326 327 331 332 331 333 334 334 334 332 332 332 332 332 331 329 329 330 329 328 326 325 325 324 325 325 325 324
310 310 310 310 310 311 308 310 309 312 316 315 314 314 317 316 320 325 327 328 327 327 328 330 331 331 331 332 332 331 331 331 332 331 330 330 328 327 327 327 327 326 324 324 324 324 324 324 324
310 306 309 309 309 308 311 306 307 313 315 313 312 313 316 316 320 322 326 327 328 329 330 329 330 331 331 330 331 331 331 329 331 331 331 329 328 327 326 325 324 324 324 323 323 323 324 324 323
305 305 299 306 310 310 309 299 308 314 313 312 314 314 312 314 317 322 325 327 329 330 329 330 329 331 331 331 331 329 330 328 329 331 331 330 328 327 328 327 325 324 323 322 322 323 322 323 323
301 295 297 300 309 308 307 303 309 313 312 310 312 314 314 313 315 319 323 327 328 329 329 330 331 329 329 331 331 329 328 327 328 330 331 331 329 328 328 329 329 327 324 322 321 322 323 322 322
293 295 297 297 302 307 305 304 309 312 312 312 312 312 313 312 312 315 320 325 328 329 329 329 330 330 330 331 331 329 326 326 327 330 331 331 330 329 328 329 330 329 326 324 324 323 324 323 322
299 297 296 299 304 302 301 302 306 310 310 310 311 311 313 315 318 314 317 323 326 328 328 328 328 329 330 329 328 326 323 325 326 331 331 331 331 329 328 328 328 329 327 326 325 325 323 322 323
299 296 296 299 301 301 301 300 305 307 308 310 310 310 311 313 315 317 315 319 324 325 328 328 328 328 330 331 331 329 327 327 327 329 330 331 330 330 328 327 326 327 327 327 326 324 322 322 323
296 294 295 295 299 302 299 297 300 305 308 309 310 311 312 312 312 314 315 314 321 324 326 328 328 329 330 330 330 329 328 327 325 326 327 329 329 329 329 327 327 327 327 326 326 325 323 320 322
292 299 297 296 293 288 299 288 296 300 301 304 307 309 312 313 315 315 316 316 316 324 326 328 330 330 330 330 328 326 324 322 323 325 327 327 328 328 329 328 327 328 328 327 327 326 324 323 321
295 300 298 296 293 291 293 289 294 299 298 301 305 308 310 313 315 315 316 317 317 320 326 328 328 330 331 331 329 327 326 326 326 326 326 327 328 329 329 329 329 328 329 328 328 326 324 325 323
301 299 298 296 292 284 291 290 293 296 299 302 304 307 309 311 314 315 317 317 317 318 322 327 326 328 331 329 328 327 325 324 325 327 326 328 329 326 328 329 330 330 329 328 328 328 325 325 324
298 293 284 283 283 284 293 291 294 300 303 304 305 307 309 310 311 312 313 314 315 314 318 322 326 326 329 329 328 328 326 327 328 328 327 328 328 328 325 326 326 328 329 329 328 327 326 325 324
294 293 286 280 282 286 291 288 294 301 304 306 307 307 307 307 309 310 310 313 314 314 312 316 320 324 326 328 327 327 328 328 328 329 328 329 329 329 328 326 325 324 325 326 327 327 326 326 325
293 289 295 287 284 283 289 293 298 301 302 304 304 304 304 304 304 303 304 308 309 313 314 312 317 320 324 326 327 327 328 328 328 329 330 329 330 329 329 329 325 323 323 323 323 322 322 323 323
296 298 288 288 281 280 286 288 290 296 299 302 301 300 301 300 300 300 300 301 305 307 310 311 313 317 321 324 326 326 327 328 329 329 329 329 329 329 328 328 328 326 323 323 321 320 320 320 320
291 289 291 291 288 282 281 286 298 298 301 300 301 299 299 298 300 299 300 299 300 301 304 306 308 312 316 321 323 325 326 327 328 328 328 328 329 328 326 326 327 326 323 322 320 319 319 318 318
296 293 292 286 283 287 286 287 297 298 300 300 299 298 298 300 301 301 302 298 300 297 299 301 305 309 314 318 321 323 325 326 326 326 327 327 326 328 327 326 325 324 323 322 319 318 317 317 317
Wind_Speed
12 5 1 1 1 1 3 4 1 3 6 2 5 3 0 3 3 4 3 8 10 13 11 12 8 12 14 14 13 12 12 11 12 14 13 13 13 13 11 11 14 14 17 17 17 17 17 17 17
10 4 0 1 1 1 4 2 2 4 3 6 5 2 4 3 3 4 8 8 13 12 11 11 10 12 13 13 12 13 11 13 11 12 12 12 12 12 11 11 14 13 15 16 16 16 16 16 16
8 5 3 2 1 4 3 1 1 5 6 4 4 2 3 3 3 6 0 12 14 12 11 10 10 13 13 13 12 13 10 12 14 12 11 12 11 12 11 8 14 13 14 15 15 15 15 15 15
5 0 2 3 3 3 2 2 2 9 3 2 1 2 2 2 1 5 9 14 14 12 11 11 11 13 13 11 13 12 9 9 13 14 11 11 11 10 12 8 14 12 13 14 14 14 14 14 15
3 0 1 1 2 2 3 3 4 7 2 2 3 2 1 3 2 8 13 13 12 12 11 12 9 13 13 12 11 12 9 9 13 14 12 10 10 9 11 9 12 12 12 13 14 13 12 13 13
1 2 4 3 1 4 6 4 5 4 2 1 3 2 1 3 7 9 12 12 11 11 11 11 9 10 11 11 10 8 8 11 12 13 13 10 10 9 10 9 10 11 11 11 12 12 12 12 12
1 3 3 2 2 2 2 3 1 2 2 1 3 3 3 6 6 10 12 11 9 10 10 11 12 11 9 9 9 9 7 8 11 13 10 9 9 7 6 7 9 10 10 10 11 11 11 11 11
0 3 5 5 6 4 2 2 4 2 2 1 2 2 3 5 11 11 10 11 10 10 10 11 11 12 12 10 7 8 7 9 8 11 10 7 8 8 5 6 6 8 10 10 10 9 10 10 10
1 6 9 10 9 5 6 5 2 1 2 1 3 3 4 8 11 13 10 10 10 10 10 11 11 12 11 10 9 7 7 9 6 8 9 8 7 8 9 6 7 7 8 9 10 8 9 9 8
6 6 13 5 7 5 9 7 6 4 4 3 3 5 3 9 11 15 15 15 15 15 14 12 13 12 12 8 10 9 9 9 9 9 11 7 7 7 6 6 7 7 7 8 9 8 7 6 4
5 11 10 8 7 3 5 4 4 6 8 8 6 3 7 11 13 14 16 16 18 16 12 14 13 13 13 10 8 6 6 6 7 10 9 7 6 6 6 5 6 6 7 6 7 6 4 4 3
7 9 7 3 7 3 6 4 8 11 13 10 11 7 7 12 16 17 18 17 15 17 16 15 15 14 13 9 8 8 7 8 7 9 10 8 6 7 6 5 6 6 6 6 5 4 4 5 4
8 8 7 8 1 4 4 11 9 16 16 14 10 7 11 13 16 17 16 14 15 18 17 17 16 15 14 13 9 9 8 8 9 9 10 8 8 7 7 6 6 6 6 6 6 5 5 5 5
1 9 11 3 8 6 7 13 2 17 12 16 14 16 14 13 15 14 15 17 18 18 18 17 18 16 15 14 13 10 9 9 9 8 9 11 8 7 7 7 7 6 6 5 5 5 5 4 4
1 9 10 7 5 6 4 15 12 22 18 18 15 16 16 16 13 19 16 18 18 16 16 17 18 18 17 17 14 11 10 10 9 9 12 12 11 10 9 7 7 6 6 7 6 6 5 5 5
2 4 11 4 6 6 7 18 8 14 12 17 20 18 17 17 16 15 16 18 18 17 19 18 15 19 19 17 13 10 11 10 10 10 10 14 13 12 10 8 8 7 6 7 6 6 6 5 5
6 10 13 11 11 5 13 14 11 14 8 13 16 16 16 17 16 16 17 17 17 18 18 19 19 20 20 18 14 13 13 9 8 10 10 14 14 13 11 9 8 9 7 7 7 6 7 6 6
10 12 13 17 5 12 18 19 18 18 18 18 19 19 19 18 19 16 16 16 17 18 18 19 17 19 19 13 12 10 9 9 9 11 12 15 13 15 13 10 10 9 8 8 8 8 7 6 6
15 10 17 14 11 17 20 23 20 21 22 21 20 21 20 22 20 18 15 16 17 18 19 21 20 21 14 12 13 13 13 12 12 12 16 17 15 16 15 11 11 11 11 11 11 9 10 8 6
16 18 18 13 10 15 20 27 23 23 26 23 24 24 24 23 22 19 18 16 18 21 22 21 21 20 19 13 13 13 13 12 12 11 14 17 18 17 15 15 13 14 10 13 12 12 8 8 8
18 17 15 19 12 12 15 31 26 24 27 25 25 26 25 25 23 18 18 21 19 20 21 21 22 22 22 21 13 12 10 9 10 13 13 15 19 19 17 18 14 14 12 11 13 13 15 9 9
18 16 19 19 12 13 6 19 23 20 23 21 17 18 20 22 21 20 22 22 22 21 18 21 22 23 20 22 18 21 16 13 13 13 13 13 19 19 18 18 17 15 12 14 13 12 12 12 10
15 10 13 17 17 12 19 13 12 9 16 19 18 18 21 21 20 22 20 21 20 18 18 20 22 21 21 20 22 17 19 14 9 11 16 17 16 19 18 18 18 16 13 15 15 14 15 11 10
4 14 9 3 0 9 15 13 20 14 17 17 21 19 20 18 18 18 18 16 16 15 17 18 22 22 22 22 23 22 22 19 14 14 13 12 12 13 18 18 17 16 15 16 14 15 16 14 13
14 6 4 7 6 9 2 13 22 11 12 11 17 18 14 16 16 15 16 14 15 15 19 18 19 21 21 23 24 26 24 23 22 19 15 15 13 13 17 18 17 15 16 16 15 14 15 15 14
20 16 8 8 9 5 3 14 9 5 10 16 16 16 16 17 14 16 16 15 15 15 16 19 19 21 21 23 24 22 24 16 17 18 14 13 14 14 16 16 16 16 18 17 16 13 13 14 13
9 10 7 4 1 2 7 13 14 15 18 16 13 10 9 11 13 14 13 11 14 12 16 17 20 20 20 22 20 21 21 21 18 21 18 14 15 12 16 17 17 16 16 16 14 11 13 13 14
19 8 7 5 4 7 13 14 15 8 16 14 8 1 6 6 12 12 9 10 10 12 13 14 16 18 18 19 19 18 20 20 20 16 18 18 16 16 15 17 17 17 18 16 14 12 12 13 12
9 8 10 6 6 9 11 13 8 16 12 10 4 5 7 6 11 12 12 8 8 11 9 8 11 15 15 16 17 18 17 19 18 16 16 16 15 16 16 17 16 16 17 16 14 14 14 14 14
22 20 18 9 9 6 5 15 5 8 10 7 8 9 8 8 10 11 12 11 11 7 7 6 7 12 13 15 16 17 17 17 18 18 17 15 16 16 16 16 16 17 17 16 15 15 13 15 15
Wind_Direction
300 331 296 262 230 86 70 88 7 136 153 88 129 224 167 353 324 31 111 138 150 148 149 157 149 143 133 129 128 120 119 113 113 108 108 110 108 108 111 91 87 87 91 92 89 91 90 86 85
311 318 266 62 316 63 86 344 207 116 83 133 146 194 225 95 126 99 147 159 160 151 156 153 145 139 135 136 133 122 128 124 119 114 116 113 112 111 117 97 97 90 95 95 95 96 93 90 87
302 1 310 21 90 70 67 12 199 116 131 157 167 256 333 48 133 151 120 158 159 156 158 141 152 145 139 139 136 128 134 140 130 125 119 114 111 121 124 108 101 100 103 98 99 98 96 94 92
323 33 138 281 86 90 49 26 170 147 182 193 248 209 181 16 83 160 146 163 162 155 161 139 155 146 143 143 139 136 139 149 137 130 119 123 120 124 128 113 101 103 106 106 101 101 100 97 93
350 299 294 81 74 60 0 357 186 166 104 156 211 104 205 117 111 143 151 166 165 159 158 159 161 149 148 148 146 147 165 135 141 130 122 127 131 129 133 116 114 108 101 104 107 106 104 100 97
49 306 234 210 43 32 51 62 151 185 337 133 227 246 123 124 152 155 158 168 166 161 163 156 154 146 147 150 144 147 142 123 135 122 130 144 134 136 138 128 118 112 112 113 112 108 106 104 98
295 243 240 197 212 153 50 346 248 248 199 270 326 278 91 172 164 156 163 165 171 169 169 171 168 159 144 149 146 150 151 142 124 122 130 136 127 135 125 138 121 122 121 112 119 119 112 106 106
115 256 187 219 216 201 112 113 15 323 88 89 310 309 69 137 150 154 167 166 176 175 180 179 180 177 172 165 151 157 157 149 156 134 137 135 123 118 104 128 128 135 130 123 121 128 122 114 108
199 232 235 222 192 188 155 163 156 314 306 300 194 287 44 138 155 157 166 174 182 185 189 188 188 185 184 176 163 160 157 145 132 135 136 159 167 167 166 82 131 129 137 129 119 121 121 112 101
207 230 246 246 219 201 184 209 184 186 275 275 238 165 125 158 183 176 183 188 191 191 191 191 191 195 187 181 169 180 177 181 186 183 177 189 176 169 161 149 141 141 140 128 127 118 124 194 152
188 234 238 224 208 236 242 250 223 216 245 236 251 259 179 176 204 213 201 207 198 188 192 197 195 194 196 187 181 183 185 192 190 190 188 193 186 172 181 159 169 163 176 164 164 165 183 163 173
221 246 230 249 212 208 246 274 261 256 254 220 222 246 225 208 204 214 215 212 199 199 194 198 194 194 201 193 196 190 191 194 196 192 189 189 195 189 190 184 180 184 187 177 186 184 177 177 184
237 242 231 235 238 254 263 264 291 273 264 267 227 222 223 221 222 219 220 218 212 209 197 199 196 194 194 199 198 203 200 203 202 195 192 198 200 198 196 193 192 194 184 189 192 193 192 193 200
345 268 267 286 256 243 249 259 242 262 284 266 254 247 236 231 222 222 213 217 214 215 205 196 200 197 190 201 197 197 199 198 202 200 199 204 204 201 200 200 201 201 200 195 206 204 204 206 211
125 277 260 240 246 246 234 258 233 267 272 267 266 255 256 245 219 216 217 218 215 218 214 204 202 198 195 196 198 200 201 196 207 204 202 202 206 207 203 203 206 207 199 203 207 209 215 217 213
211 230 255 250 220 224 220 260 236 251 275 264 261 258 253 243 234 236 218 219 215 212 211 208 204 200 202 197 197 200 201 201 199 210 203 206 206 211 206 207 208 203 201 207 212 213 215 224 221
191 249 235 256 206 266 220 265 263 252 249 262 272 271 263 258 243 230 223 217 215 212 207 212 206 206 204 205 198 205 202 203 198 211 212 207 207 209 213 214 212 201 205 208 214 215 225 219 223
216 226 243 250 232 231 253 253 270 264 270 269 275 275 271 267 255 245 224 216 212 213 211 208 209 210 205 204 208 200 204 205 202 210 213 211 209 208 210 216 215 206 208 212 212 219 210 232 234
244 273 253 264 276 269 266 269 261 266 263 263 264 265 266 265 263 249 242 221 210 212 209 212 204 207 200 201 199 204 208 208 213 212 212 212 211 208 210 216 216 211 213 213 211 212 218 215 221
229 250 249 254 267 277 278 274 271 268 265 260 265 266 262 260 257 249 245 229 221 210 209 208 209 204 203 201 201 206 209 217 215 214 215 214 213 211 212 213 214 213 215 217 212 209 210 226 201
234 241 255 257 274 274 294 281 266 253 255 256 251 258 264 262 259 250 236 228 219 221 210 206 205 202 201 206 200 207 215 217 207 211 214 215 214 214 211 214 215 213 214 215 213 210 213 214 206
232 231 246 255 261 263 251 284 282 281 266 259 253 250 257 254 250 250 247 237 230 221 212 210 205 205 207 199 200 202 205 203 213 209 209 210 213 214 214 214 215 215 212 218 213 211 215 218 217
250 226 248 241 246 266 252 269 268 260 263 264 266 261 262 264 263 258 246 240 228 225 214 215 210 206 203 204 205 202 209 214 209 204 209 209 211 215 211 209 213 213 211 217 216 207 212 213 217
200 231 228 238 284 244 229 225 281 257 258 264 269 270 267 271 273 266 260 253 243 224 216 213 214 213 202 199 205 207 209 212 208 206 205 205 207 208 213 211 213 211 213 214 215 213 213 214 215
207 152 206 207 198 248 156 193 249 323 300 255 266 267 294 288 282 275 261 253 243 222 210 216 214 215 207 203 204 207 212 212 213 209 206 203 205 205 209 210 214 214 214 214 214 214 212 215 215
203 202 219 235 215 227 138 229 262 287 286 261 275 279 292 303 295 278 275 270 254 233 215 218 220 218 209 210 211 211 214 215 215 213 208 212 211 210 205 204 213 214 218 220 216 214 215 217 217
165 202 237 275 164 256 231 253 267 250 260 265 270 280 295 312 308 318 316 271 265 250 233 217 221 223 218 214 213 214 214 213 213 215 211 212 213 211 205 204 203 206 212 215 214 217 216 216 215
231 156 194 188 242 245 249 266 256 276 281 260 233 303 320 312 327 326 334 304 287 276 258 227 229 227 221 221 218 217 215 216 215 214 213 214 213 210 206 205 206 205 213 209 206 217 222 218 218
190 218 224 251 230 238 265 260 264 238 262 279 264 321 310 321 317 332 332 315 280 271 238 197 222 230 226 223 220 221 220 217 216 216 215 213 214 209 208 209 206 208 209 206 205 212 214 219 221
201 200 191 203 195 231 283 263 159 237 260 277 303 295 330 298 299 311 321 320 319 295 239 209 234 243 235 229 222 221 219 214 214 213 212 210 212 211 209 209 209 209 211 209 207 209 209 212 217